STARLINK-2666, 48666

Orbit data source: Space-Track

STARLINK-2666, 48666 is a payload satellite owned by SpaceX/Seattle (US) in LEO that was launched on Wed, 26 May 2021 UTC via an FALCON 9 launch vehicle from the Air Force Eastern Test Range (AFETR). Payload-class satellites include a variety of spacecraft equipped with specific instruments for various scientific and technological missions. These include communications satellites like Starlink; space stations such as the ISS; scientific satellites like the Hubble; Earth observation satellites from companies like Planet Labs, Umbra, and HawkEye 360; GPS; miniature CubeSats for education and research; and military/defense satellites.

Loading next visibility...
Identifier
48666, 2021-044AE
Orbit
LEO
Country
Flag of USUS
Related business
Manufacturer
SpaceX/Seattle
Mission
Partially operational Commercial Communications
Bus & Motor
STARLINK, Unknown motor
Mass
260 kg wet, ~248 kg dry
Launch date (UTC)
2021-05-26 (5 years ago)
Launch vehicle
FALCON 9
Launch site
Air Force Eastern Test Range (AFETR)
Object type
Payload
Rocket body
Debris
Shape & HBR
Box + 1 Pan, 10.1 m
Radar Cross Section
13.562 m², Large (>1 m²)

Expand to show TLE details & history
Last TLE update: 2 days ago

TLE from 2 days ago
0 STARLINK-2666
1 48666U 21044AE  26171.21801157  .00000944  00000-0  45045-4 0  9992
2 48666  53.1597 357.8786 0001190  75.1891 284.9241 15.29357675279501
Epoch: 2026-06-20T05:13Z
TLE epoch observation values (Epoch: 2026-06-20T05:13:56.199Z)
Latitude
-0.00004°
Longitude
10.95861°
Altitude
478.421 km
Speed
7.628 km/s
True Right ascension
23h 51m 30s
True Declination
0° 00' 00"
Sunlit
Object was in daylight at epoch
Visualization orbit readout
Latitude
Unknown
Longitude
Unknown
Altitude
Unknown
Speed
Unknown
Apparent Right ascension
Unknown
Apparent Declination
Unknown
Sunlit
N/A
Visualization observer readout
Local Sidereal Time
23:19:57
Azimuth
Unknown
Elevation
Unknown
Doppler factor
Unknown
Orbital elements
Apogee altitude
478.804 km
Perigee altitude
477.172 km
Semi-major axis
6,856.125 km
Eccentricity
0.00012
Inclination
53.1597°
RAAN
357.8786°
Arg. of periapsis
75.1891°
True anomaly
284.91092°
Mean anomaly
284.9241°
Eccentric anomaly
284.91751°
Mean motion
3.82318 °/min
Orbital period
94.16 mins
BSTAR
0.000045045
Loading maneuver chart data...
Computing Atmospheric mass density...
Loading historical data...
Loading historical data...
Loading historical data...
Loading historical data...
Loading historical data...
Loading historical data...
Loading historical data...

Documentation

Showing up to 5 results
|